QPF
0.00 0.00 0.00 0.00 0.00 0.00 0.00 0.00 0.00 0.00 0.00 0.00 0.00 0.00 0.00 0.00 0.00 0.00 0.00 0.00 0.00 0.00
0.00 0.00 0.00 0.00 0.00 0.00 0.00 0.00 0.00 0.00 0.00 0.00 0.00 0.00 0.00 0.00 0.00 0.00 0.00 0.00 0.00 0.00
0.00 0.00 0.00 0.00 0.00 0.00 0.00 0.00 0.00 0.00 0.00 0.00 0.00 0.00 0.00 0.00 0.00 0.00 0.00 0.00 0.00 0.00
0.00 0.00 0.00 0.00 0.00 0.00 0.00 0.00 0.00 0.00 0.00 0.00 0.00 0.00 0.00 0.00 0.00 0.00 0.00 0.00 0.00 0.00
0.00 0.00 0.00 0.00 0.00 0.00 0.00 0.00 0.00 0.00 0.00 0.00 0.00 0.00 0.00 0.00 0.00 0.00 0.00 0.00 0.00 0.00
0.00 0.00 0.00 0.00 0.00 0.00 0.00 0.00 0.00 0.00 0.00 0.00 0.00 0.00 0.00 0.00 0.00 0.00 0.00 0.00 0.00 0.00
0.00 0.00 0.00 0.00 0.00 0.00 0.00 0.00 0.00 0.00 0.00 0.00 0.00 0.00 0.00 0.00 0.00 0.00 0.00 0.00 0.00 0.00
0.00 0.00 0.00 0.00 0.00 0.00 0.00 0.00 0.00 0.00 0.00 0.00 0.00 0.00 0.00 0.00 0.00 0.00 0.00 0.00 0.00 0.00
0.00 0.00 0.00 0.00 0.00 0.00 0.00 0.00 0.00 0.00 0.00 0.00 0.00 0.00 0.00 0.00 0.00 0.00 0.00 0.00 0.00 0.00
0.00 0.00 0.00 0.00 0.00 0.00 0.00 0.00 0.00 0.00 0.00 0.00 0.00 0.00 0.00 0.00 0.00 0.00 0.00 0.00 0.00 0.00
0.00 0.00 0.00 0.00 0.00 0.00 0.00 0.00 0.00 0.00 0.00 0.00 0.00 0.00 0.00 0.00 0.00 0.00 0.00 0.00 0.00 0.00
0.00 0.00 0.00 0.00 0.00 0.00 0.00 0.00 0.00 0.00 0.00 0.00 0.00 0.00 0.00 0.00 0.00 0.00 0.00 0.00 0.00 0.00
0.00 0.00 0.00 0.00 0.00 0.00 0.00 0.00 0.00 0.00 0.00 0.00 0.00 0.00 0.00 0.00 0.00 0.00 0.00 0.00 0.00 0.00
0.00 0.00 0.00 0.00 0.00 0.00 0.00 0.00 0.00 0.00 0.00 0.00 0.00 0.00 0.00 0.00 0.00 0.00 0.00 0.00 0.00 0.00
MSLP
1020.35 1020.63 1020.84 1020.98 1021.16 1021.33 1021.48 1021.61 1021.64 1021.81 1022.02 1022.20 1022.34 1022.43 1022.48 1022.57 1022.56 1022.57 1022.56 1022.62 1022.60 1022.64
1020.32 1020.48 1020.68 1020.87 1021.01 1021.12 1021.22 1021.38 1021.70 1021.86 1022.08 1022.25 1022.31 1022.45 1022.49 1022.66 1022.61 1022.54 1022.46 1022.40 1022.41 1022.39
1020.17 1020.35 1020.52 1020.75 1020.96 1021.09 1021.24 1021.40 1021.63 1021.88 1022.03 1022.12 1022.19 1022.22 1022.28 1022.36 1022.39 1022.40 1022.19 1022.11 1022.11 1022.16
1020.07 1020.28 1020.50 1020.72 1020.91 1021.13 1021.35 1021.55 1021.79 1021.90 1021.93 1021.94 1021.88 1021.95 1022.07 1022.04 1022.22 1022.08 1021.88 1021.77 1021.77 1021.72
1020.12 1020.34 1020.55 1020.78 1021.01 1021.26 1021.46 1021.52 1021.60 1021.68 1021.83 1021.91 1021.83 1021.84 1021.71 1021.65 1021.68 1021.52 1021.41 1021.17 1021.38 1021.33
1020.16 1020.45 1020.70 1020.84 1021.02 1021.22 1021.40 1021.49 1021.55 1021.62 1021.70 1021.57 1021.44 1021.42 1021.27 1021.30 1021.27 1021.18 1020.96 1020.78 1020.87 1020.71
1020.16 1020.31 1020.50 1020.77 1020.88 1021.03 1021.22 1021.37 1021.38 1021.36 1021.41 1021.22 1021.21 1021.03 1020.99 1020.87 1020.74 1020.80 1020.53 1020.26 1020.04 1020.06
1019.86 1020.10 1020.38 1020.66 1020.91 1021.06 1021.20 1021.30 1021.30 1021.34 1021.19 1021.19 1021.01 1020.63 1020.41 1020.28 1020.32 1020.22 1019.97 1019.60 1019.27 1019.27
1019.87 1020.17 1020.49 1020.81 1021.05 1021.15 1021.22 1021.26 1021.33 1021.20 1021.19 1020.95 1020.59 1020.25 1020.01 1019.95 1019.75 1019.52 1019.28 1018.99 1018.48 1018.39
1019.98 1020.32 1020.67 1020.91 1021.10 1021.29 1021.28 1021.26 1021.22 1021.10 1020.90 1020.65 1020.19 1019.74 1019.52 1019.31 1019.02 1018.67 1018.38 1018.09 1017.80 1017.69
1020.18 1020.54 1020.76 1020.95 1021.12 1021.15 1021.17 1021.21 1021.22 1021.08 1020.65 1020.23 1019.74 1019.27 1018.94 1018.58 1018.24 1017.87 1017.62 1017.35 1017.07 1017.06
1020.31 1020.64 1020.85 1021.15 1021.20 1021.23 1021.29 1021.13 1021.05 1020.74 1020.46 1020.04 1019.31 1018.85 1018.38 1018.00 1017.49 1017.22 1016.91 1016.58 1016.26 1016.11
1020.61 1020.91 1021.22 1021.32 1021.27 1021.16 1021.21 1021.11 1020.76 1020.19 1019.82 1019.45 1018.77 1018.35 1017.93 1017.56 1017.09 1016.74 1016.42 1015.98 1015.54 1015.18
1020.82 1021.01 1021.11 1021.09 1021.13 1021.22 1021.00 1020.66 1020.38 1019.97 1019.46 1019.08 1018.64 1017.96 1017.51 1017.03 1016.55 1016.29 1015.86 1015.42 1014.95 1014.52
Thickness
5599 5593 5588 5583 5577 5571 5565 5559 5553 5546 5538 5530 5523 5516 5508 5500 5493 5486 5480 5473 5466 5461
5590 5585 5579 5574 5568 5562 5557 5549 5541 5534 5525 5516 5508 5499 5492 5482 5475 5468 5462 5457 5451 5445
5581 5576 5571 5564 5558 5551 5544 5537 5529 5519 5511 5502 5493 5485 5476 5466 5458 5451 5446 5441 5435 5428
5573 5567 5561 5554 5547 5539 5530 5521 5512 5504 5495 5486 5478 5469 5459 5452 5442 5436 5431 5424 5419 5414
5563 5556 5549 5541 5533 5524 5516 5507 5498 5488 5478 5466 5459 5450 5445 5436 5428 5423 5417 5413 5407 5402
5552 5544 5536 5528 5519 5510 5500 5491 5481 5470 5458 5451 5445 5436 5430 5423 5417 5411 5407 5402 5397 5394
5541 5533 5524 5514 5505 5496 5486 5474 5461 5453 5444 5438 5430 5424 5417 5412 5407 5401 5397 5394 5391 5386
5530 5521 5510 5500 5490 5478 5465 5455 5447 5438 5431 5423 5417 5413 5408 5403 5398 5394 5391 5387 5384 5379
5515 5505 5494 5482 5470 5458 5448 5441 5431 5425 5417 5411 5407 5402 5399 5394 5391 5387 5384 5381 5378 5372
5500 5489 5476 5462 5451 5441 5433 5426 5418 5411 5405 5401 5396 5393 5388 5384 5381 5379 5376 5372 5368 5363
5482 5469 5457 5447 5437 5429 5421 5413 5405 5398 5393 5390 5386 5381 5376 5372 5369 5367 5363 5359 5354 5347
5464 5453 5442 5431 5423 5415 5407 5400 5392 5386 5380 5375 5375 5367 5362 5356 5354 5352 5348 5343 5338 5331
5447 5436 5425 5416 5408 5401 5392 5386 5380 5377 5369 5363 5361 5354 5347 5339 5335 5332 5328 5326 5321 5315
5431 5421 5412 5404 5395 5386 5379 5373 5367 5364 5359 5350 5341 5337 5329 5321 5312 5305 5303 5302 5299 5293